Location: Hylvaty SDH
(49.9612°N, 16.4057°E)
Time: 09:42:10
(UTC+01:00)

Vanguard 1 Rocket - All Passes

Search period start: 23 January 2020 00:00
Search period end: 02 February 2020 00:00
Orbit: 650 x 4226 km, 34.3° (Epoch: 22 January)

Date Brightness Start Highest point End Pass type
(mag) Time Alt. Az. Time Alt. Az. Time Alt. Az.
23 Jan - 08:33:40 10° SSE 08:38:47 16° SE 08:45:45 10° ESE daylight
23 Jan - 10:53:23 10° SW 11:02:49 38° SSE 11:19:29 10° ESE daylight
23 Jan - 13:16:55 10° WSW 13:29:48 44° S 13:51:08 10° SE daylight
23 Jan - 15:43:09 10° W 15:58:16 32° SSW 16:18:30 10° SSE daylight
23 Jan - 18:18:43 10° WSW 18:25:48 12° SW 18:33:18 10° SSW visible
24 Jan - 09:43:55 10° SSW 09:51:31 29° SSE 10:04:10 10° E daylight
24 Jan - 12:06:14 10° WSW 12:17:10 44° S 12:36:25 10° ESE daylight
24 Jan - 14:31:06 10° W 14:45:04 37° SSW 15:06:03 10° SE daylight
24 Jan - 17:00:29 10° WSW 17:13:11 20° SW 17:28:14 10° S visible
25 Jan - 08:35:24 10° S 08:40:51 19° SE 08:48:42 10° ESE daylight
25 Jan - 10:56:03 10° SW 11:05:10 39° SSE 11:21:23 10° ESE daylight
25 Jan - 13:19:48 10° WSW 13:32:06 41° S 13:52:24 10° SE daylight
25 Jan - 15:46:33 10° W 16:00:15 27° SSW 16:18:28 10° SSE daylight
26 Jan - 09:46:24 10° SW 09:53:48 31° SSE 10:06:21 10° ESE daylight
26 Jan - 12:09:05 10° WSW 12:19:34 41° S 12:37:59 10° ESE daylight
26 Jan - 14:34:14 10° WSW 14:47:16 32° SSW 15:06:38 10° SSE daylight
26 Jan - 17:05:47 10° WSW 17:15:01 14° SW 17:25:37 10° SSW visible
27 Jan - 08:37:30 10° S 08:43:03 21° SE 08:51:22 10° ESE daylight
27 Jan - 10:58:50 10° SW 11:07:35 39° S 11:23:13 10° ESE daylight
27 Jan - 13:22:50 10° WSW 13:34:27 37° SSW 13:53:26 10° SE daylight
27 Jan - 15:50:25 10° WSW 16:02:18 21° SW 16:17:43 10° S daylight
28 Jan - 07:30:43 10° SSE 07:32:47 11° SE 07:35:08 10° ESE daylight
28 Jan - 09:49:03 10° SW 09:56:13 32° SSE 10:08:28 10° ESE daylight
28 Jan - 12:12:03 10° WSW 12:22:02 38° S 12:39:24 10° SE daylight
28 Jan - 14:37:36 10° WSW 14:49:30 27° SSW 15:06:45 10° SSE daylight
29 Jan - 08:39:51 10° SSW 08:45:23 23° SSE 08:53:53 10° ESE daylight
29 Jan - 11:01:43 10° WSW 11:10:05 37° S 11:24:58 10° ESE daylight
29 Jan - 13:25:59 10° WSW 13:36:51 32° SSW 13:54:11 10° SE daylight
29 Jan - 15:55:09 10° WSW 16:04:24 16° SW 16:15:48 10° S daylight
30 Jan - 07:31:54 10° S 07:35:02 13° SE 07:38:55 10° ESE daylight
30 Jan - 09:51:48 10° SW 09:58:42 32° SSE 10:10:31 10° ESE daylight
30 Jan - 12:15:05 10° WSW 12:24:31 35° S 12:40:37 10° SE daylight
30 Jan - 14:41:22 10° WSW 14:51:47 22° SSW 15:06:17 10° S daylight
31 Jan - 08:42:24 10° SSW 08:47:50 25° SSE 08:56:17 10° ESE daylight
31 Jan - 11:04:41 10° WSW 11:12:40 35° S 11:26:35 10° SE daylight
31 Jan - 13:29:22 10° WSW 13:39:17 27° SSW 13:54:32 10° SSE daylight
31 Jan - 16:02:58 10° SW 16:06:35 11° SW 16:10:29 10° SSW daylight
01 Feb - 07:33:49 10° S 07:37:23 16° SSE 07:42:01 10° ESE daylight
01 Feb - 09:54:41 10° SW 10:01:17 32° S 10:12:29 10° ESE daylight
01 Feb - 12:18:17 10° WSW 12:27:05 30° SSW 12:41:35 10° SE daylight
01 Feb - 14:45:51 10° WSW 14:54:07 16° SSW 15:04:52 10° S daylight
